#timestamp,LO_Frequency,Hit,StdDev 
1572541215.2,286047000.2,P
1572541235.0,286046999.9,N
1572541235.9,286046999.9,N
1572541255.8,286047003.8,Y
1572541275.6,286047004.0,P
1572541295.4,286047001.3,N
1572541315.3,286047004.1,N
1572541335.1,286047004.1,N
1572541336.0,286047004.1,N
1572541355.8,286047001.3,N
1572541375.7,286047003.1,N
1572541395.5,286047007.4,Y
1572541415.3,286047004.3,P
1572541435.2,286047003.9,P
1572541455.9,286047005.8,P
1572541475.7,286047003.2,N
1572541495.6,286047003.4,Y
1572541515.4,286047000.9,P
1572541535.2,286047000.4,N
1572541555.1,286046999.7,N
1572541556.0,286046999.7,N
1572541575.8,286047001.4,N
1572541595.6,286047001.6,N
1572541615.5,286047001.7,N
1572541635.3,286047002.0,N
1572541655.1,286046999.7,N
1572541675.8,286047003.8,N
1572541695.7,286047003.6,N
1572541715.5,286047005.6,Y
1572541735.3,286047003.7,P
1572541755.2,286047002.9,N
1572541775.0,286047003.1,P
1572541775.9,286047003.1,Y
1572541795.8,286047003.8,P
1572541815.6,286047003.9,P
1572541835.4,286047001.3,N
1572541855.2,286047004.0,Y
1572541875.1,286046999.7,P
1572541876.0,286046999.7,N
1572541895.8,286047002.7,N
1572541915.6,286047002.2,N
1572541935.5,286047004.4,Y
1572541955.3,286047002.3,P
1572541975.1,286047001.9,P
1572541995.9,286047005.5,P
1572542015.7,286047003.3,N
1572542035.5,286047004.2,N
1572542055.4,286047004.4,Y
1572542075.2,286046999.9,P
1572542095.0,286046999.7,N
1572542095.9,286046999.7,N
1572542115.8,286047001.1,N
1572542135.6,286047002.1,N
1572542155.4,286047001.4,N
1572542175.3,286047002.4,N
1572542195.1,286047002.0,N
1572542215.8,286046999.7,N
1572542235.7,286047001.6,N
1572542255.5,286047002.2,N
1572542275.3,286047001.5,N
1572542295.2,286047005.5,Y
1572542315.9,286047002.5,P
1572542335.7,286047002.6,P
1572542355.6,286047002.1,P
1572542375.4,286047002.6,Y
1572542395.2,286047002.6,P
1572542415.1,286047002.7,P
1572542416.0,286047002.7,P
1572542435.8,286047000.3,N
1572542455.6,286047000.3,N
1572542475.5,286046998.5,N
1572542495.3,286046998.9,N
1572542515.1,286046999.3,N
1572542535.9,286046999.3,N
1572542555.7,286046997.0,N
1572542575.5,286046999.1,N
1572542595.4,286046996.9,N
1572542615.2,286046997.0,N
1572542635.0,286046999.0,N
1572542635.9,286046999.0,N
1572542655.8,286047001.1,N
1572542675.6,286046999.1,N
1572542695.4,286047000.7,N
1572542715.3,286046999.2,N
1572542735.1,286047000.9,N
1572542736.0,286047000.9,N
1572542755.8,286047001.2,N
1572542775.7,286046999.2,N
1572542795.5,286046996.5,N
1572542815.3,286046995.3,N
1572542835.1,286046997.5,N
1572542855.9,286046996.5,N
1572542875.7,286046996.1,N
1572542895.5,286046996.2,N
1572542915.4,286046995.2,N
1572542935.2,286046995.5,N
1572542955.0,286046994.4,N
1572542955.9,286046994.4,N
1572542975.8,286046994.0,N
1572542995.6,286046992.1,Y
1572543015.4,286046993.9,P
1572543035.3,286046993.9,P
1572543055.1,286046991.9,P
1572543075.8,286046992.0,Y
1572543095.7,286046995.2,P
1572543115.5,286046995.7,P
1572543135.3,286046994.1,P
1572543155.2,286046992.1,Y
1572543175.0,286046999.3,P
1572543175.9,286046999.3,N
1572543195.7,286046998.8,N
1572543215.6,286047001.2,N
1572543235.4,286046996.8,N
1572543255.2,286046995.3,N
1572543275.1,286046999.6,N
1572543276.0,286046999.6,N
1572543295.8,286046994.2,N
1572543315.6,286046995.5,N
1572543335.5,286046996.3,N
1572543355.3,286046991.8,Y
1572543375.1,286046993.8,P
1572543395.9,286046993.9,P
1572543415.7,286046993.0,P
1572543435.5,286046992.0,Y
1572543455.4,286046997.1,P
1572543475.2,286046997.2,N
1572543495.0,286046994.9,P
1572543495.9,286046994.9,Y
1572543515.8,286046999.9,P
1572543535.6,286047002.4,N
1572543555.4,286047000.9,N
1572543575.3,286047000.8,N
1572543595.1,286047000.6,N
1572543615.8,286047000.7,N
1572543635.7,286046994.9,N
1572543655.5,286046997.4,N
1572543675.3,286046997.5,N
1572543695.2,286046994.6,N
1572543715.9,286046994.8,N
1572543735.7,286046992.0,N
1572543755.6,286046994.3,N
1572543775.4,286046992.0,N
1572543795.2,286046992.6,N
1572543815.1,286046990.9,N
1572543816.0,286046990.9,N
1572543835.8,286046991.5,N
1572543855.6,286046989.8,N
1572543875.5,286046989.7,N
1572543895.3,286046989.6,N
1572543915.1,286046989.3,N
1572543935.9,286046989.5,N
1572543955.7,286046988.7,N
1572543975.5,286046987.0,N
1572543995.4,286046987.1,N
1572544015.2,286046987.6,N
1572544035.0,286046986.4,N
1572544035.9,286046986.4,N
1572544055.8,286046984.1,Y
1572544075.6,286046990.9,P
1572544095.4,286046990.8,P
1572544115.3,286046991.2,P
1572544135.1,286046988.5,Y
1572544136.0,286046988.5,P
1572544155.8,286046999.6,N
1572544175.7,286046997.6,N
1572544195.5,286046995.3,N
1572544215.3,286046995.6,N
1572544235.2,286046997.9,N
1572544255.9,286046998.8,N
1572544275.7,286046996.9,N
1572544295.6,286046995.5,N
1572544315.4,286046994.1,N
1572544335.2,286046992.0,N
1572544355.1,286046992.7,N
1572544356.0,286046992.7,N
1572544375.8,286046991.9,N
1572544395.6,286046992.6,N
1572544415.5,286046990.5,Y
1572544435.3,286046995.6,P
1572544455.1,286046993.4,P
1572544475.9,286046996.2,P
1572544495.7,286046993.4,Y
1572544515.5,286046998.1,P
1572544535.4,286047001.1,N
1572544555.2,286047000.3,N
1572544575.0,286046999.9,N
1572544575.9,286046999.9,N
1572544595.7,286047000.8,N
1572544615.6,286046998.1,N
1572544635.4,286046999.9,N
1572544655.2,286047000.1,N
1572544675.1,286047001.0,N
1572544676.0,286047001.0,N
1572544695.8,286046998.8,N
1572544715.6,286046998.6,N
1572544735.5,286046998.2,N
1572544755.3,286046996.5,N
1572544775.1,286046997.8,N
1572544795.9,286046995.1,N
